[[{"header":{"parameterUnit":"m.s-1","parameterCategory":2,"la1":30.2991,"la2":30.254,"lo1":-89.0895,"lo2":-89.0444,"dy":0.0017,"dx":0.0017,"nx":28,"ny":28,"refTime":"2024-06-21T21:00:00:Z","depth":"0","parameterNumber":2,"parameterNumberName":"U-component_of_CURRENTS"},"data":[0,0,0,0,0,0,0,0,0,0,0,0,0,0,0,0,0,0,0,0,0,0,0,0,0,0,0,0,0,0,0,0,0,0,0,0,0,0,0,0,0,0,0,0,0,0,0,0,0,0,0,0,0,0,0,0,0,0,0.5654,0.5656,0,0.5777,0.5778,0.5779,0.5821,0.5821,0.5821,0.5821,0.5766,0.5764,0.5763,0,0,0,0,0,0,0,0,0,0,0,0,0,0.5498,0.5499,0.5654,0.5656,0.5658,0.5777,0.5778,0.5779,0.5821,0.5821,0.5821,0.5821,0.5767,0.5765,0.5763,0,0,0,0,0,0,0,0,0,0,0,0,0,0.5581,0.55,0.5653,0.5698,0.5704,0.5777,0.5778,0.578,0.5821,0.5821,0.5821,0.5821,0.5767,0.5765,0.5763,0.5745,0,0,0.5755,0.5754,0,0,0,0,0,0,0,0,0.5576,0.5586,0.5689,0.5695,0.5702,0.579,0.5704,0.5761,0.5821,0.5769,0.5821,0.5821,0.5762,0.576,0.5776,0.5742,0.574,0.5755,0.5754,0.5753,0.5752,0,0,0,0,0,0,0,0.557,0.5581,0.5696,0.5692,0.5699,0.5728,0.5739,0.5715,0.5754,0.5774,0.5779,0.5803,0.5763,0.5778,0.5774,0.5739,0.5755,0.5753,0.5752,0.5751,0.5726,0.5727,0,0,0,0,0,0,0.5567,0.5576,0.5692,0.57,0.5646,0.5731,0.5743,0.5756,0.5759,0.5763,0.5803,0.5805,0.5782,0.5777,0.5772,0.577,0.5753,0.5751,0.5749,0.5725,0.5726,0.5727,0,0,0,0,0,0,0.5562,0.5575,0.5687,0.5647,0.5664,0.5734,0.5748,0.5758,0.577,0.5784,0.5783,0.5805,0.5782,0.5775,0.5774,0.5767,0.5749,0.5747,0.5724,0.5725,0.5726,0.5753,0,0,0,0,0,0,0.5557,0.5572,0.5561,0.5646,0.5666,0.5716,0.5749,0.5761,0.5789,0.5792,0.5785,0.5781,0.5781,0.5778,0.5772,0.5764,0.5745,0.5723,0.5725,0.5726,0.5751,0.5754,0.5758,0,0,0,0,0,0.5551,0.5538,0.5559,0.5573,0.5654,0.5716,0.5727,0.5774,0.5789,0.5785,0.5808,0.5781,0.5782,0.5777,0.577,0.576,0.5723,0.5724,0.5726,0.5749,0.5754,0.5758,0,0,0,0,0,0,0.5425,0.5544,0.5569,0.558,0.5639,0.5725,0.5728,0.5767,0.5784,0.5779,0.5791,0.5789,0.5785,0.5772,0.5766,0.576,0.5747,0.5747,0.5767,0.5771,0.5774,0.5708,0.5744,0,0,0,0,0,0.5404,0.5444,0.5539,0.5541,0.5572,0.5647,0.5672,0.571,0.5753,0.5761,0.5772,0.5778,0.5787,0.5779,0.5777,0.5766,0.5749,0.5757,0.576,0.5763,0.5706,0.57,0.5697,0.5732,0.5732,0.5732,0,0,0.5356,0.5424,0.5443,0.5521,0.5568,0.5604,0.5659,0.5696,0.572,0.5746,0.576,0.5783,0.5789,0.5795,0.5789,0.578,0.5759,0.5765,0.5767,0.5708,0.5701,0.5697,0.5694,0.5734,0.5733,0.5733,0,0,0.5292,0.5339,0.5359,0.5416,0.5498,0.5553,0.5562,0.5649,0.5677,0.5712,0.5743,0.5755,0.5773,0.5778,0.5783,0.5792,0.578,0.5808,0.5763,0.576,0.5756,0.5752,0.5787,0.5786,0.5807,0.5807,0.5807,0,0.5229,0.5267,0.5362,0.5396,0.5438,0.5527,0.5544,0.559,0.5664,0.5684,0.5709,0.5745,0.5754,0.5753,0.5772,0.5792,0.5807,0.5752,0.5762,0.5757,0.5752,0.5788,0.5786,0.5808,0.5808,0.5808,0.5808,0,0.5193,0.5224,0.5235,0.5322,0.5368,0.5398,0.5493,0.5529,0.5584,0.5635,0.5657,0.5689,0.5706,0.5728,0.5753,0.5733,0.5765,0.5772,0.5746,0.575,0.579,0.5787,0.581,0.581,0.5809,0.5809,0,0,0.5063,0.5191,0.5193,0.5226,0.5339,0.5373,0.542,0.5489,0.552,0.557,0.5597,0.5618,0.5642,0.5646,0.5681,0.567,0.5691,0.5706,0.5705,0.573,0.572,0.5719,0.5717,0.5714,0.5712,0.5711,0.5783,0,0.5005,0.5051,0.5136,0.5163,0.5196,0.5306,0.5348,0.5418,0.5493,0.5544,0.5568,0.5609,0.5614,0.5646,0.5627,0.5699,0.5675,0.5672,0.5717,0.5718,0.5707,0.5708,0.5541,0.5586,0.5781,0.578,0.578,0,0.4943,0.4992,0.5018,0.5117,0.5139,0.517,0.5267,0.5322,0.5418,0.548,0.5507,0.5559,0.5578,0.5578,0.5612,0.5624,0.5637,0.5664,0.5669,0.5631,0.5708,0.5602,0.5574,0.545,0.5775,0.5776,0.5776,0,0.4822,0.4906,0.4926,0.4963,0.5084,0.5112,0.5178,0.5289,0.5368,0.5447,0.5531,0.5527,0.5606,0.5576,0.5665,0.5645,0.5709,0.5701,0.5687,0.5692,0.5527,0.5518,0.5354,0.564,0.5639,0.5639,0.5639,0,0.4746,0.4755,0.4874,0.4888,0.493,0.5032,0.509,0.518,0.5308,0.5402,0.5487,0.5571,0.561,0.5684,0.5669,0.5705,0.5719,0.5649,0.5687,0.5543,0.5534,0.5402,0.5355,0.5642,0.5641,0.5641,0.564,0,0.4626,0.4695,0.4738,0.4848,0.4884,0.4923,0.5087,0.5135,0.5284,0.542,0.5463,0.5649,0.5748,0.5785,0.5813,0.5771,0.5612,0.5752,0.5608,0.5623,0.5448,0.5411,0.5069,0.4923,0.5716,0.5716,0.5716,0,0.4578,0.4584,0.4706,0.475,0.4806,0.4885,0.4945,0.5103,0.5189,0.5467,0.5528,0.5708,0.5792,0.5879,0.5833,0.5798,0.5609,0.5614,0.549,0.5382,0.5369,0.5161,0.5046,0.5322,0.5319,0.5316,0.5314,0,0.4511,0.4558,0.4611,0.4688,0.4754,0.482,0.4929,0.5002,0.52,0.5315,0.5498,0.5594,0.5765,0.568,0.5701,0.5653,0.5359,0.5559,0.5449,0.5022,0.4771,0.4671,0.5383,0.5291,0.5293,0.5295,0.5296,0.5297,0.449,0.4511,0.4587,0.4632,0.4696,0.4732,0.4715,0.4837,0.4928,0.5047,0.5302,0.5338,0.5475,0.5485,0.542,0.5251,0.5204,0.5078,0.5046,0.4847,0.4641,0.5325,0.5277,0.5279,0.5281,0.5283,0.5284,0,0.4461,0.4478,0.4526,0.4558,0.4529,0.4606,0.4668,0.4598,0.4589,0.4772,0.4852,0.4932,0.4906,0.4965,0.4949,0.4778,0.4521,0.4634,0.4272,0.419,0.4808,0.4729,0.4555,0.4555,0.4555,0.4555,0.4555,0.4555,0.4468,0.4465,0.4449,0.4367,0.436,0.4239,0.4213,0.4146,0.4196,0.415,0.4155,0.4288,0.457,0.4672,0.4532,0.4411,0.4056,0.3873,0.3846,0.4302,0.4339,0.4374,0.4286,0.4021,0.402,0.3047,0.304,0.3034]},{"header":{"parameterUnit":"m.s-1","parameterCategory":2,"la1":30.2991,"la2":30.254,"lo1":-89.0895,"lo2":-89.0444,"dy":0.0017,"dx":0.0017,"nx":28,"ny":28,"refTime":"2024-06-21T21:00:00:Z","depth":"0","parameterNumber":3,"parameterNumberName":"V-component_of_CURRENTS"},"data":[0,0,0,0,0,0,0,0,0,0,0,0,0,0,0,0,0,0,0,0,0,0,0,0,0,0,0,0,0,0,0,0,0,0,0,0,0,0,0,0,0,0,0,0,0,0,0,0,0,0,0,0,0,0,0,0,0,0,0.0318,0.0317,0,0.0244,0.0244,0.0243,0.0191,0.0191,0.019,0.019,0.007,0.0068,0.0065,0,0,0,0,0,0,0,0,0,0,0,0,0,0.036,0.036,0.0318,0.0317,0.0316,0.0245,0.0244,0.0242,0.0191,0.0191,0.019,0.019,0.0071,0.0068,0.0065,0,0,0,0,0,0,0,0,0,0,0,0,0,0.032,0.036,0.0318,0.0282,0.0278,0.0245,0.0243,0.0242,0.0191,0.0191,0.019,0.019,0.0072,0.0068,0.0064,0.0048,0,0,0.0051,0.0049,0,0,0,0,0,0,0,0,0.0322,0.0318,0.0288,0.0285,0.028,0.0227,0.0215,0.0175,0.0191,0.0224,0.019,0.0189,0.0119,0.0111,0.0098,0.0043,0.0038,0.0051,0.0048,0.0046,0.0045,0,0,0,0,0,0,0,0.0325,0.0321,0.0288,0.0288,0.0283,0.0252,0.0246,0.0207,0.0174,0.0221,0.0217,0.021,0.0116,0.0103,0.0095,0.0036,0.0051,0.0047,0.0044,0.0043,-0.004,-0.004,0,0,0,0,0,0,0.0338,0.0324,0.0291,0.0286,0.0301,0.0252,0.0245,0.0244,0.0175,0.0165,0.021,0.0208,0.011,0.01,0.0091,0.0097,0.0046,0.0042,0.004,-0.0041,-0.004,-0.004,0,0,0,0,0,0,0.034,0.0337,0.0294,0.0303,0.0295,0.0252,0.0251,0.0243,0.0232,0.0168,0.0156,0.0209,0.0109,0.0097,0.0064,0.0091,0.004,0.0036,-0.0041,-0.0041,-0.004,0.0091,0,0,0,0,0,0,0.0341,0.0338,0.0343,0.0304,0.0296,0.0285,0.0251,0.0242,0.0229,0.0225,0.0163,0.0151,0.0108,0.007,0.0059,0.0084,0.0033,-0.0042,-0.0041,-0.004,0.0087,0.0096,0.0105,0,0,0,0,0,0.0343,0.0364,0.0344,0.034,0.0304,0.0285,0.0278,0.0244,0.023,0.0232,0.0189,0.0153,0.0067,0.0068,0.0054,0.0079,-0.0042,-0.0041,-0.004,0.0083,0.0094,0.0104,0,0,0,0,0,0,0.0386,0.0359,0.0337,0.0347,0.0319,0.0277,0.028,0.0253,0.0222,0.022,0.0157,0.0143,0.0121,0.0077,0.008,0.0053,0.0006,0.0005,0.0104,0.0115,0.0124,0.0174,0.003,0,0,0,0,0,0.0397,0.0407,0.0366,0.0375,0.0365,0.0322,0.0311,0.0288,0.0254,0.0241,0.0195,0.0148,0.0113,0.0098,0.0052,0.0043,-0.0004,0.0047,0.0056,0.0064,0.0094,0.0042,0.005,-0.0037,-0.0037,-0.0037,0,0,0.0419,0.0404,0.041,0.0385,0.0362,0.0373,0.0315,0.0309,0.0325,0.0232,0.0237,0.0173,0.0114,0.0102,0.0089,0.0072,0.006,0.0065,0.0073,0.0099,0.0044,0.0053,0.006,-0.0037,-0.0037,-0.0037,0,0,0.0475,0.0451,0.0478,0.0464,0.0438,0.0414,0.0417,0.0376,0.0364,0.0352,0.0292,0.0253,0.0195,0.0166,0.0144,0.0175,0.0103,0.0149,0.0248,0.0197,0.0205,0.0211,0.0151,0.0151,0.0163,0.0164,0.0164,0,0.05,0.0529,0.0483,0.0505,0.0513,0.0443,0.0481,0.046,0.0414,0.0419,0.0372,0.0296,0.0236,0.0239,0.0248,0.0201,0.0152,0.0218,0.0213,0.0218,0.0222,0.0159,0.0157,0.017,0.0169,0.0169,0.0168,0,0.0575,0.0598,0.0616,0.0626,0.0625,0.0645,0.0613,0.0609,0.0578,0.0553,0.0531,0.044,0.0402,0.0368,0.0321,0.0325,0.0273,0.0225,0.0195,0.0239,0.0169,0.0165,0.0179,0.0177,0.0175,0.0173,0,0,0.0642,0.0666,0.0675,0.071,0.0696,0.0711,0.074,0.0751,0.0789,0.0714,0.0749,0.0665,0.0601,0.0571,0.0489,0.0447,0.0417,0.0362,0.0356,0.0322,0.0296,0.0277,0.027,0.0365,0.0365,0.0366,0.0232,0,0.0718,0.0801,0.0789,0.0876,0.0918,0.0882,0.0924,0.0922,0.0899,0.0907,0.0812,0.0801,0.0683,0.0667,0.0603,0.047,0.0414,0.0458,0.0243,0.0237,0.0231,0.0268,0.0308,0.0195,0.0228,0.0227,0.0226,0,0.0802,0.0849,0.0952,0.1021,0.1038,0.108,0.1142,0.1168,0.1154,0.1135,0.109,0.1003,0.0937,0.0822,0.0627,0.0658,0.0498,0.0379,0.037,0.0313,0.0212,0.0155,0.0185,-0.0059,0.0219,0.0219,0.022,0,0.0889,0.0969,0.1065,0.1086,0.1145,0.1197,0.1229,0.1244,0.1297,0.1283,0.1318,0.1186,0.1153,0.0939,0.0692,0.0657,0.0468,0.0381,0.0208,0.0203,0.018,0.0174,-0.0029,0.0243,0.0244,0.0244,0.0245,0,0.0983,0.1059,0.112,0.1173,0.1303,0.1303,0.1428,0.144,0.1481,0.158,0.1445,0.1491,0.1184,0.1034,0.0763,0.0494,0.0515,0.0247,0.0181,0.0223,0.0223,-0.004,-0.0168,0.0239,0.024,0.0241,0.0242,0,0.1066,0.1102,0.1217,0.1307,0.135,0.1443,0.1567,0.165,0.168,0.1804,0.1817,0.1726,0.1537,0.121,0.0875,0.0623,0.0206,0.023,0.03,0.0246,-0.0149,-0.027,-0.0532,-0.0625,0.0015,0.0014,0.0013,0,0.1117,0.1186,0.132,0.1402,0.1452,0.1585,0.1681,0.1744,0.1848,0.1968,0.2045,0.1923,0.1871,0.1372,0.0892,0.0422,0.0174,0.0155,0.0095,-0.0141,-0.0327,-0.0428,-0.0494,0.0094,0.0094,0.0094,0.0094,0,0.1213,0.1259,0.135,0.1516,0.164,0.1789,0.1937,0.2056,0.2163,0.2291,0.2424,0.2401,0.1957,0.1512,0.0881,0.0556,0.0012,0.0137,-0.0125,-0.0277,-0.0382,-0.0511,0.0135,0.0093,0.0093,0.0093,0.0093,0.0093,0.128,0.136,0.1478,0.1639,0.1787,0.198,0.2122,0.2295,0.2505,0.2717,0.2688,0.2706,0.2086,0.1236,0.0775,-0.0019,-0.004,-0.0269,-0.0399,-0.0483,-0.0557,0.0095,-0.0008,-0.0008,-0.0009,-0.0009,-0.001,0,0.1355,0.1444,0.1592,0.1784,0.1953,0.2021,0.2282,0.2438,0.2706,0.2893,0.3006,0.2715,0.196,0.1181,0.0111,-0.0451,-0.0639,-0.0755,-0.0898,-0.0942,-0.0381,-0.036,-0.0519,-0.0518,-0.0518,-0.0518,-0.0518,-0.0517,0.1397,0.1533,0.1606,0.1886,0.2028,0.2265,0.2423,0.267,0.2856,0.3075,0.3096,0.3059,0.2474,0.0594,-0.0688,-0.0978,-0.1332,-0.1426,-0.1622,-0.1257,-0.1222,-0.1189,-0.1201,-0.1534,-0.1535,-0.2099,-0.2105,-0.211]}],[{"header":{"parameterUnit":"m.s-1","parameterCategory":2,"la1":30.2991,"la2":30.254,"lo1":-89.0895,"lo2":-89.0444,"dy":0.0017,"dx":0.0017,"nx":28,"ny":28,"refTime":"2024-06-21T21:00:00:Z","depth":"2","parameterNumber":2,"parameterNumberName":"U-component_of_CURRENTS"},"data":[0,0,0,0,0,0,0,0,0,0,0,0,0,0,0,0,0,0,0,0,0,0,0,0,0,0,0,0,0,0,0,0,0,0,0,0,0,0,0,0,0,0,0,0,0,0,0,0,0,0,0,0,0,0,0,0,0,0,0.4142,0.4143,0,0.4228,0.4229,0.4229,0.4293,0.4293,0.4294,0.4295,0.4347,0.4348,0.4348,0,0,0,0,0,0,0,0,0,0,0,0,0,0.4088,0.4088,0.4142,0.4143,0.4145,0.4228,0.4229,0.423,0.4293,0.4293,0.4294,0.4295,0.4347,0.4348,0.4349,0,0,0,0,0,0,0,0,0,0,0,0,0,0.4135,0.4088,0.4142,0.4187,0.4192,0.4227,0.4229,0.423,0.4292,0.4293,0.4294,0.4295,0.4346,0.4347,0.4349,0.4336,0,0,0.4352,0.4353,0,0,0,0,0,0,0,0,0.4132,0.4137,0.4179,0.4184,0.4189,0.4252,0.4229,0.4264,0.4292,0.4253,0.4295,0.4296,0.4312,0.4316,0.4329,0.4338,0.4341,0.4352,0.4353,0.4354,0.4354,0,0,0,0,0,0,0,0.4129,0.4134,0.4175,0.418,0.4187,0.4222,0.4229,0.4236,0.4274,0.4256,0.4261,0.4273,0.4315,0.4327,0.433,0.4341,0.4352,0.4353,0.4354,0.4354,0.4412,0.4413,0,0,0,0,0,0,0.4117,0.413,0.4172,0.4178,0.4164,0.4221,0.4229,0.423,0.4275,0.4284,0.4272,0.4275,0.4325,0.4329,0.4332,0.4397,0.4353,0.4355,0.4355,0.4412,0.4413,0.4413,0,0,0,0,0,0,0.4115,0.4119,0.4169,0.4158,0.4167,0.4221,0.4221,0.4231,0.4274,0.4287,0.4295,0.4309,0.4326,0.4331,0.4329,0.4397,0.4355,0.4356,0.4411,0.4412,0.4413,0.4477,0,0,0,0,0,0,0.4113,0.4118,0.4134,0.4156,0.4167,0.4203,0.4221,0.4232,0.4278,0.4285,0.4321,0.4325,0.4327,0.4327,0.433,0.4397,0.4357,0.4409,0.4411,0.4413,0.4473,0.448,0.4485,0,0,0,0,0,0.411,0.4103,0.4134,0.4141,0.418,0.4204,0.4213,0.4254,0.4279,0.4298,0.4299,0.4326,0.4341,0.4326,0.433,0.4401,0.4409,0.4411,0.4412,0.4471,0.4479,0.4485,0,0,0,0,0,0,0.4056,0.411,0.4144,0.4147,0.4189,0.4216,0.4231,0.427,0.429,0.43,0.431,0.4313,0.4358,0.4347,0.4331,0.442,0.4391,0.4394,0.4434,0.4442,0.4448,0.4416,0.4358,0,0,0,0,0,0.4061,0.4089,0.4134,0.4139,0.4158,0.4207,0.423,0.4267,0.4281,0.4296,0.4318,0.4338,0.4365,0.4373,0.4394,0.4414,0.4416,0.4468,0.4474,0.4479,0.4455,0.4507,0.4516,0.442,0.442,0.442,0,0,0.4043,0.4073,0.4091,0.4135,0.4164,0.4189,0.4222,0.4261,0.4291,0.4294,0.433,0.4366,0.4375,0.4413,0.4434,0.4412,0.4512,0.4481,0.4486,0.4458,0.451,0.452,0.4528,0.4421,0.4421,0.4421,0,0,0.4011,0.4044,0.4068,0.4106,0.4169,0.4191,0.421,0.4265,0.4302,0.4338,0.4362,0.4403,0.4442,0.4458,0.447,0.451,0.4552,0.4558,0.4555,0.4609,0.4617,0.4624,0.4659,0.4669,0.455,0.4551,0.4551,0,0.4007,0.4017,0.4074,0.4103,0.4128,0.4191,0.4212,0.4251,0.4305,0.4344,0.4356,0.4447,0.4458,0.4504,0.4518,0.4528,0.4561,0.4533,0.4618,0.4625,0.4631,0.4665,0.4675,0.4554,0.4554,0.4553,0.4553,0,0.398,0.4015,0.4017,0.408,0.4118,0.4137,0.4201,0.4255,0.4313,0.437,0.4459,0.4473,0.4529,0.4563,0.4544,0.4617,0.4628,0.4634,0.4602,0.4645,0.4677,0.4687,0.4559,0.4557,0.4556,0.4556,0,0,0.3911,0.3992,0.3997,0.4037,0.411,0.4133,0.4189,0.4261,0.4324,0.4401,0.4478,0.4524,0.4579,0.459,0.4615,0.4637,0.4714,0.4651,0.4653,0.4688,0.4838,0.479,0.4795,0.4758,0.476,0.4761,0.485,0,0.388,0.3919,0.3968,0.4008,0.4035,0.4119,0.4166,0.4259,0.4344,0.4437,0.4504,0.4587,0.4579,0.4633,0.4658,0.4721,0.4739,0.4688,0.4786,0.4787,0.4742,0.4804,0.4437,0.448,0.4859,0.486,0.4861,0,0.3842,0.3875,0.3909,0.4003,0.4022,0.4062,0.4172,0.4231,0.4378,0.4458,0.4561,0.4636,0.4707,0.4688,0.4788,0.4772,0.4792,0.4815,0.482,0.4748,0.4755,0.4494,0.4483,0.4877,0.4875,0.4874,0.4873,0,0.3763,0.3836,0.3859,0.3887,0.3996,0.4046,0.4109,0.4253,0.4333,0.4489,0.4588,0.4685,0.4773,0.4813,0.4881,0.4855,0.4985,0.496,0.4921,0.4918,0.4602,0.4569,0.4994,0.4993,0.4993,0.4993,0.4993,0,0.3701,0.3724,0.3835,0.3847,0.39,0.4012,0.4098,0.4192,0.4355,0.4458,0.46,0.4699,0.4814,0.4916,0.4924,0.4974,0.5033,0.492,0.4941,0.4617,0.4585,0.4914,0.4904,0.4996,0.4996,0.4995,0.4994,0,0.362,0.3679,0.3721,0.3832,0.3869,0.392,0.408,0.4157,0.4329,0.4472,0.4534,0.4752,0.4892,0.4988,0.5081,0.5046,0.5078,0.5065,0.4676,0.4648,0.4955,0.4947,0.5022,0.5021,0.502,0.5019,0.5019,0,0.3576,0.3595,0.3695,0.3718,0.3768,0.3864,0.3935,0.4117,0.421,0.4486,0.4546,0.4768,0.4879,0.5035,0.5016,0.504,0.51,0.4692,0.4548,0.4946,0.496,0.4953,0.4946,0.4157,0.415,0.4144,0.4139,0,0.3496,0.3544,0.3576,0.3629,0.3694,0.3757,0.3878,0.3939,0.416,0.4298,0.4474,0.4597,0.4798,0.4684,0.4763,0.471,0.4662,0.4569,0.5094,0.4224,0.4143,0.4154,0.4172,0.4084,0.4089,0.4093,0.4096,0.4098,0.344,0.3449,0.3497,0.3528,0.3588,0.3617,0.361,0.3754,0.3859,0.4004,0.424,0.4307,0.44,0.4346,0.4225,0.4136,0.4443,0.4215,0.4228,0.425,0.4151,0.4075,0.3983,0.3987,0.3991,0.3995,0.3998,0,0.3346,0.3368,0.3391,0.3406,0.3391,0.348,0.3536,0.3497,0.3528,0.3727,0.3844,0.363,0.3609,0.369,0.3486,0.3502,0.3404,0.3342,0.3166,0.3228,0.3281,0.3124,0.2688,0.2683,0.2679,0.2674,0,0,0.3306,0.3267,0.3267,0.3189,0.3207,0.3124,0.3106,0.3084,0.3147,0.3139,0.3168,0.3472,0.3624,0.3115,0.3058,0.283,0.2989,0.272,0.3787,0.3645,0.3691,0.3824,0.3662,0,0,0,0,0]},{"header":{"parameterUnit":"m.s-1","parameterCategory":2,"la1":30.2991,"la2":30.254,"lo1":-89.0895,"lo2":-89.0444,"dy":0.0017,"dx":0.0017,"nx":28,"ny":28,"refTime":"2024-06-21T21:00:00:Z","depth":"2","parameterNumber":3,"parameterNumberName":"V-component_of_CURRENTS"},"data":[0,0,0,0,0,0,0,0,0,0,0,0,0,0,0,0,0,0,0,0,0,0,0,0,0,0,0,0,0,0,0,0,0,0,0,0,0,0,0,0,0,0,0,0,0,0,0,0,0,0,0,0,0,0,0,0,0,0,0.0278,0.0277,0,0.0209,0.0208,0.0207,0.0152,0.0152,0.0151,0.0151,0.0055,0.0053,0.0051,0,0,0,0,0,0,0,0,0,0,0,0,0,0.0294,0.0294,0.0278,0.0277,0.0276,0.0209,0.0208,0.0207,0.0152,0.0152,0.0151,0.0151,0.0056,0.0053,0.005,0,0,0,0,0,0,0,0,0,0,0,0,0,0.0261,0.0294,0.0278,0.0242,0.0239,0.021,0.0208,0.0207,0.0152,0.0152,0.0151,0.0151,0.0057,0.0053,0.005,0.0042,0,0,0.004,0.0039,0,0,0,0,0,0,0,0,0.0263,0.026,0.0248,0.0245,0.024,0.019,0.0179,0.0151,0.0152,0.0183,0.0151,0.015,0.0099,0.0092,0.0079,0.0037,0.0033,0.004,0.0038,0.0036,0.0035,0,0,0,0,0,0,0,0.0265,0.0262,0.0249,0.0248,0.0243,0.0207,0.0202,0.0173,0.0143,0.018,0.0177,0.0172,0.0097,0.0082,0.0076,0.0032,0.004,0.0037,0.0035,0.0034,-0.0019,-0.0018,0,0,0,0,0,0,0.0282,0.0265,0.0251,0.0247,0.0252,0.0207,0.0202,0.0205,0.0144,0.0135,0.0173,0.017,0.0088,0.008,0.0072,0.0079,0.0036,0.0033,0.0031,-0.0019,-0.0019,-0.0018,0,0,0,0,0,0,0.0283,0.0282,0.0254,0.0255,0.0249,0.0209,0.0213,0.0204,0.0193,0.0139,0.0129,0.0171,0.0087,0.0077,0.0062,0.0074,0.0032,0.0029,-0.002,-0.0019,-0.0018,0.0079,0,0,0,0,0,0,0.0283,0.0282,0.0291,0.0257,0.025,0.025,0.0213,0.0204,0.0192,0.0188,0.0134,0.0124,0.0086,0.0068,0.0059,0.0068,0.0026,-0.0021,-0.002,-0.0019,0.0075,0.0083,0.0089,0,0,0,0,0,0.0284,0.0306,0.0292,0.029,0.0264,0.0251,0.0244,0.0211,0.0193,0.0197,0.0165,0.0126,0.0068,0.0066,0.0056,0.0064,-0.0021,-0.002,-0.0019,0.0071,0.0081,0.0089,0,0,0,0,0,0,0.0317,0.0302,0.0286,0.0301,0.0282,0.0242,0.0245,0.022,0.0196,0.0192,0.0139,0.0128,0.0116,0.0079,0.0079,0.0051,0.0014,0.0014,0.0086,0.0095,0.0102,0.0127,0.0024,0,0,0,0,0,0.033,0.0343,0.0315,0.0328,0.0323,0.0284,0.0275,0.0252,0.0226,0.0214,0.0177,0.0138,0.0113,0.0097,0.0065,0.0056,0.0012,0.0052,0.0059,0.0066,0.0078,0.0025,0.0029,-0.0014,-0.0014,-0.0014,0,0,0.0349,0.034,0.0348,0.0336,0.0318,0.0326,0.0277,0.0271,0.0277,0.0208,0.0207,0.0165,0.0116,0.0106,0.0096,0.0078,0.0054,0.0067,0.0074,0.0083,0.0027,0.0031,0.0035,-0.0013,-0.0013,-0.0013,0,0,0.0392,0.0383,0.0407,0.0399,0.0379,0.0359,0.0363,0.0328,0.0313,0.0307,0.0258,0.0227,0.0188,0.0153,0.0132,0.016,0.0096,0.0147,0.0204,0.0153,0.0157,0.0159,0.0107,0.0104,0.015,0.015,0.015,0,0.0412,0.0437,0.0411,0.0428,0.0434,0.0382,0.0409,0.0389,0.0353,0.0351,0.0321,0.0261,0.0211,0.02,0.0207,0.0177,0.014,0.0177,0.0164,0.0165,0.0166,0.0112,0.0108,0.0155,0.0154,0.0154,0.0154,0,0.0467,0.0489,0.0504,0.0514,0.0515,0.0529,0.0503,0.0498,0.0472,0.0447,0.0427,0.0357,0.0323,0.0295,0.0261,0.0245,0.0214,0.0181,0.0145,0.0176,0.0117,0.0111,0.0162,0.016,0.0159,0.0158,0,0,0.0513,0.0539,0.0546,0.0572,0.0564,0.0577,0.059,0.0592,0.0613,0.0555,0.0572,0.0501,0.0455,0.0427,0.0365,0.0315,0.0277,0.0261,0.0256,0.0217,0.0167,0.0136,0.0125,0.0245,0.0244,0.0244,0.0124,0,0.0565,0.0627,0.0622,0.0686,0.072,0.0691,0.0719,0.0711,0.069,0.0691,0.0607,0.0597,0.0508,0.0496,0.0431,0.0325,0.0265,0.0313,0.0136,0.0131,0.0105,0.0118,0.0157,0.0054,0.0117,0.0115,0.0115,0,0.0621,0.0659,0.0735,0.0789,0.0802,0.0834,0.0874,0.089,0.087,0.0853,0.081,0.0744,0.0671,0.0589,0.0413,0.0452,0.0321,0.0223,0.0215,0.015,0.0088,0.0031,0.0038,0.0103,0.0104,0.0105,0.0105,0,0.0679,0.0741,0.0812,0.0829,0.0878,0.0914,0.0939,0.0944,0.0983,0.096,0.0981,0.0866,0.083,0.0654,0.0447,0.0433,0.0248,0.0197,0.004,0.0035,0.0016,0.0011,0.0064,0.0064,0.0065,0.0065,0.0065,0,0.0742,0.0798,0.0853,0.0894,0.0995,0.0996,0.1094,0.1096,0.1123,0.1194,0.1076,0.1095,0.0847,0.0711,0.0496,0.0258,0.0278,0.0055,0.0006,0.005,0.005,0.0051,0.0051,0.006,0.0062,0.0062,0.0063,0,0.08,0.083,0.0919,0.0993,0.103,0.1104,0.1209,0.1275,0.1284,0.1371,0.1375,0.1271,0.1098,0.0832,0.0548,0.0341,0.0101,0.0005,0.0075,0.0035,-0.0094,-0.0088,-0.0182,-0.0184,-0.0186,-0.0187,-0.0189,0,0.0835,0.089,0.1003,0.107,0.1114,0.1226,0.1311,0.1358,0.1441,0.1489,0.1544,0.1408,0.1344,0.0911,0.0519,0.0138,0.0087,-0.0087,-0.0119,-0.0079,-0.0118,-0.0109,-0.01,-0.0113,-0.0114,-0.0114,-0.0114,0,0.0904,0.0944,0.1023,0.1167,0.1275,0.1405,0.1531,0.1625,0.1697,0.1765,0.1824,0.1775,0.1385,0.1008,0.0484,0.0225,-0.0024,-0.0109,-0.0082,-0.005,-0.0022,-0.0057,-0.005,-0.0118,-0.0118,-0.0117,-0.0117,-0.0117,0.0958,0.1026,0.1132,0.1273,0.1402,0.157,0.1686,0.1822,0.1972,0.2089,0.2033,0.1967,0.1543,0.0879,0.0418,-0.0066,-0.0042,-0.0215,-0.021,-0.0206,-0.017,-0.0145,-0.0258,-0.0258,-0.0259,-0.0259,-0.0259,0,0.1024,0.1104,0.1228,0.1398,0.1545,0.161,0.1823,0.1933,0.2118,0.2228,0.2269,0.1867,0.1444,0.0947,0.0232,-0.019,-0.0214,-0.0326,-0.0262,-0.0254,-0.0249,-0.0213,-0.0315,-0.0316,-0.0318,-0.0319,0,0,0.106,0.1182,0.1245,0.1487,0.1614,0.1814,0.1941,0.2104,0.2222,0.232,0.2293,0.2214,0.161,0.1082,0.0505,0.0091,0.0018,0.0012,0.0105,0.0259,0.0269,-0.0135,-0.0065,0,0,0,0,0]}],[{"header":{"parameterUnit":"m.s-1","parameterCategory":2,"la1":30.2991,"la2":30.254,"lo1":-89.0895,"lo2":-89.0444,"dy":0.0017,"dx":0.0017,"nx":28,"ny":28,"refTime":"2024-06-21T21:00:00:Z","depth":"4","parameterNumber":2,"parameterNumberName":"U-component_of_CURRENTS"},"data":[0,0,0,0,0,0,0,0,0,0,0,0,0,0,0,0,0,0,0,0,0,0,0,0,0,0,0,0,0,0,0,0,0,0,0,0,0,0,0,0,0,0,0,0,0,0,0,0,0,0,0,0,0,0,0,0,0,0,0.2314,0.2316,0,0.2428,0.2429,0.243,0.2514,0.2515,0.2516,0.2517,0.2652,0.2655,0.2658,0,0,0,0,0,0,0,0,0,0,0,0,0,0.2206,0.2207,0.2314,0.2316,0.2317,0.2428,0.2429,0.2431,0.2514,0.2515,0.2516,0.2517,0.2651,0.2655,0.2658,0,0,0,0,0,0,0,0,0,0,0,0,0,0.2278,0.2207,0.2314,0.2373,0.238,0.2428,0.2429,0.2431,0.2514,0.2515,0.2516,0.2518,0.265,0.2654,0.2658,0.2659,0,0,0.2671,0.2673,0,0,0,0,0,0,0,0,0.2274,0.2282,0.2363,0.2369,0.2377,0.2459,0.2441,0.2509,0.2514,0.2462,0.2517,0.2518,0.259,0.2599,0.2615,0.2666,0.2671,0.2672,0.2674,0.2676,0.2677,0,0,0,0,0,0,0,0.2269,0.2278,0.2358,0.2364,0.2373,0.2407,0.2418,0.2454,0.2516,0.2466,0.2473,0.2487,0.2593,0.2611,0.2619,0.2673,0.2672,0.2675,0.2678,0.268,0.29,0.2903,0,0,0,0,0,0,0.2254,0.2273,0.2354,0.2362,0.2329,0.2407,0.242,0.243,0.2516,0.253,0.2486,0.2491,0.2603,0.2614,0.2624,0.2769,0.2676,0.268,0.2682,0.2897,0.2901,0.2904,0,0,0,0,0,0,0.2251,0.226,0.235,0.2321,0.2335,0.2408,0.2419,0.2432,0.2505,0.2531,0.2546,0.2552,0.2605,0.2618,0.2701,0.277,0.2682,0.2686,0.2893,0.2898,0.2902,0.297,0,0,0,0,0,0,0.2247,0.2258,0.2294,0.232,0.2336,0.2408,0.2418,0.2433,0.2509,0.2518,0.2591,0.2602,0.2607,0.2695,0.2705,0.2774,0.2689,0.2888,0.2895,0.2901,0.2963,0.2976,0.2988,0,0,0,0,0,0.2243,0.2276,0.2294,0.2307,0.2371,0.241,0.2423,0.2477,0.2511,0.2547,0.2601,0.2602,0.2742,0.27,0.2712,0.2784,0.2885,0.2893,0.29,0.2958,0.2974,0.2987,0,0,0,0,0,0,0.2262,0.2289,0.2309,0.2355,0.2394,0.2425,0.2475,0.2508,0.258,0.2608,0.2632,0.2646,0.2747,0.2759,0.2711,0.2869,0.282,0.283,0.286,0.2875,0.2887,0.2889,0.2693,0,0,0,0,0,0.2276,0.2306,0.2336,0.2381,0.2402,0.245,0.2487,0.2521,0.2571,0.2608,0.2655,0.2718,0.2778,0.2821,0.2866,0.2945,0.2955,0.3006,0.3018,0.3028,0.3041,0.3114,0.3133,0.2929,0.2929,0.2928,0,0,0.2295,0.2319,0.2338,0.2387,0.2425,0.2466,0.2477,0.2544,0.2598,0.2609,0.2715,0.2761,0.2809,0.2898,0.2947,0.2922,0.3091,0.3037,0.3045,0.3053,0.3124,0.3143,0.3161,0.2934,0.2933,0.2932,0,0,0.2323,0.237,0.2395,0.2433,0.2495,0.2522,0.2551,0.2609,0.2662,0.2753,0.2782,0.2866,0.296,0.3001,0.3035,0.3145,0.315,0.318,0.3247,0.3319,0.3336,0.3351,0.3375,0.3392,0.319,0.319,0.319,0,0.235,0.2384,0.2415,0.2452,0.2495,0.255,0.2594,0.2651,0.2735,0.279,0.2804,0.2975,0.3008,0.3119,0.3161,0.3172,0.3202,0.3181,0.3332,0.3347,0.3361,0.3383,0.3401,0.3194,0.3194,0.3193,0.3193,0,0.2376,0.2431,0.2456,0.2515,0.2565,0.262,0.2682,0.2759,0.2836,0.2893,0.3035,0.3087,0.3191,0.3223,0.3228,0.3359,0.3344,0.3332,0.3286,0.3386,0.3403,0.342,0.32,0.3199,0.3197,0.3196,0,0,0.2354,0.2452,0.2468,0.2509,0.2608,0.2642,0.2749,0.2848,0.2935,0.3042,0.3157,0.327,0.3321,0.3363,0.3392,0.3455,0.3568,0.345,0.3451,0.3457,0.3714,0.348,0.3475,0.3594,0.3598,0.3601,0.3679,0,0.237,0.2442,0.2495,0.2586,0.2625,0.2719,0.2807,0.2915,0.3021,0.3145,0.3244,0.3365,0.3369,0.3439,0.3508,0.3563,0.362,0.3546,0.3632,0.3633,0.3399,0.3489,0.3613,0.3691,0.3695,0.3698,0.37,0,0.2364,0.242,0.2502,0.2618,0.2647,0.2724,0.2882,0.2972,0.3151,0.3238,0.3385,0.3464,0.3603,0.3579,0.373,0.3694,0.3719,0.3739,0.3743,0.3513,0.3431,0.3578,0.373,0.3728,0.3725,0.3723,0.3722,0,0.2304,0.242,0.249,0.2532,0.2672,0.2753,0.2849,0.3019,0.3113,0.3319,0.3419,0.358,0.3688,0.3766,0.3833,0.3806,0.3967,0.3923,0.3729,0.3711,0.3866,0.3849,0.402,0.402,0.4019,0.4019,0.4019,0,0.227,0.2332,0.2481,0.2519,0.2621,0.274,0.2879,0.2997,0.3186,0.3297,0.3476,0.3575,0.3751,0.3859,0.3883,0.3858,0.4015,0.3751,0.3726,0.389,0.3876,0.3876,0.3858,0.4022,0.4021,0.4021,0.402,0,0.2181,0.2282,0.2367,0.2533,0.2592,0.2674,0.2879,0.2965,0.3171,0.3325,0.3402,0.3626,0.3755,0.3877,0.4001,0.3898,0.3905,0.3853,0.4022,0.4003,0.3583,0.3568,0.3625,0.3618,0.3612,0.3606,0.3602,0,0.2133,0.2172,0.2351,0.2406,0.2492,0.2636,0.2719,0.2934,0.3025,0.3315,0.3361,0.3582,0.3699,0.3687,0.3825,0.3849,0.3808,0.3769,0.3666,0.3577,0.3549,0.3544,0.3538,0.3592,0.359,0.3589,0.3587,0,0.2036,0.2125,0.2195,0.2308,0.2408,0.2498,0.2648,0.2694,0.2932,0.3147,0.3245,0.3322,0.3457,0.3539,0.3594,0.3602,0.3769,0.3703,0.3714,0.3617,0.3538,0.3514,0.3516,0.3565,0.3569,0.3571,0.3572,0,0.1966,0.1986,0.2092,0.2174,0.2285,0.2322,0.2424,0.2527,0.2643,0.2955,0.2979,0.3209,0.3418,0.3412,0.3462,0.3458,0.3394,0.3261,0.3294,0.332,0.3184,0.3036,0.2898,0,0,0,0,0,0.1874,0.1877,0.1943,0.2009,0.2112,0.2183,0.2346,0.2455,0.2686,0.2675,0.2822,0.293,0.3016,0.3138,0.3072,0.3322,0.3404,0.3228,0.3266,0.3445,0.347,0.3339,0,0,0,0,0,0,0.1807,0.186,0.1881,0.1857,0.1876,0.1962,0.206,0.2219,0.2234,0.2485,0.2554,0.2744,0.288,0.3028,0.3016,0.305,0.3009,0.3375,0.3367,0.3431,0.3454,0.3474,0.3347,0,0,0,0,0]},{"header":{"parameterUnit":"m.s-1","parameterCategory":2,"la1":30.2991,"la2":30.254,"lo1":-89.0895,"lo2":-89.0444,"dy":0.0017,"dx":0.0017,"nx":28,"ny":28,"refTime":"2024-06-21T21:00:00:Z","depth":"4","parameterNumber":3,"parameterNumberName":"V-component_of_CURRENTS"},"data":[0,0,0,0,0,0,0,0,0,0,0,0,0,0,0,0,0,0,0,0,0,0,0,0,0,0,0,0,0,0,0,0,0,0,0,0,0,0,0,0,0,0,0,0,0,0,0,0,0,0,0,0,0,0,0,0,0,0,0.0244,0.0243,0,0.0204,0.0203,0.0202,0.0169,0.0168,0.0168,0.0168,0.0108,0.0107,0.0105,0,0,0,0,0,0,0,0,0,0,0,0,0,0.0242,0.0242,0.0244,0.0243,0.0243,0.0204,0.0203,0.0202,0.0169,0.0168,0.0168,0.0168,0.0109,0.0107,0.0105,0,0,0,0,0,0,0,0,0,0,0,0,0,0.0225,0.0242,0.0244,0.0223,0.022,0.0204,0.0203,0.0202,0.0169,0.0168,0.0168,0.0168,0.0109,0.0107,0.0105,0.0099,0,0,0.0099,0.0098,0,0,0,0,0,0,0,0,0.0226,0.0225,0.0226,0.0224,0.0221,0.0192,0.018,0.0167,0.0169,0.0187,0.0168,0.0167,0.0136,0.0131,0.0123,0.0096,0.0094,0.0099,0.0097,0.0096,0.0096,0,0,0,0,0,0,0,0.0227,0.0226,0.0226,0.0226,0.0223,0.0198,0.0196,0.0177,0.0162,0.0185,0.0183,0.0181,0.0134,0.0125,0.0121,0.0093,0.0099,0.0097,0.0095,0.0095,0.0067,0.0067,0,0,0,0,0,0,0.0238,0.0228,0.0228,0.0225,0.0225,0.0199,0.0196,0.0201,0.0163,0.0157,0.0181,0.018,0.0128,0.0123,0.0119,0.0129,0.0096,0.0094,0.0093,0.0066,0.0067,0.0067,0,0,0,0,0,0,0.0239,0.0239,0.0229,0.0226,0.0223,0.02,0.0205,0.02,0.0197,0.016,0.0154,0.0184,0.0128,0.0122,0.0116,0.0125,0.0094,0.0092,0.0066,0.0066,0.0067,0.0136,0,0,0,0,0,0,0.0239,0.024,0.0249,0.0227,0.0224,0.0231,0.0205,0.02,0.0196,0.0194,0.016,0.0154,0.0127,0.0119,0.0114,0.0122,0.009,0.0065,0.0066,0.0067,0.0133,0.0139,0.0144,0,0,0,0,0,0.0239,0.0258,0.0249,0.0249,0.0237,0.0232,0.0228,0.0208,0.0197,0.0202,0.0182,0.0155,0.0121,0.0118,0.0112,0.0119,0.0065,0.0066,0.0067,0.0131,0.0138,0.0144,0,0,0,0,0,0,0.0261,0.0256,0.0246,0.0262,0.0252,0.0227,0.0232,0.0217,0.0204,0.0201,0.0166,0.0159,0.0157,0.013,0.0128,0.0113,0.0086,0.0086,0.0137,0.0143,0.0149,0.0154,0.0088,0,0,0,0,0,0.0271,0.0285,0.0269,0.0282,0.028,0.0257,0.0253,0.0239,0.0224,0.0218,0.0196,0.0171,0.0155,0.0144,0.0126,0.012,0.0078,0.0118,0.0124,0.0129,0.0128,0.0076,0.0076,0.0071,0.0071,0.0071,0,0,0.0284,0.0282,0.029,0.0288,0.0278,0.0285,0.0254,0.0254,0.0259,0.0213,0.0218,0.0194,0.016,0.0155,0.015,0.0134,0.0109,0.013,0.0135,0.0131,0.0077,0.0077,0.0078,0.0072,0.0072,0.0071,0,0,0.0314,0.0315,0.0333,0.0331,0.0322,0.0311,0.0315,0.0297,0.0289,0.0289,0.0257,0.0237,0.0219,0.0189,0.0173,0.0196,0.0144,0.0194,0.0221,0.0171,0.0171,0.017,0.0122,0.0117,0.0192,0.0192,0.0192,0,0.0327,0.0348,0.0337,0.035,0.0357,0.0328,0.0347,0.0336,0.0317,0.0315,0.0302,0.0263,0.0231,0.0215,0.0222,0.0207,0.0174,0.0201,0.0178,0.0176,0.0174,0.0125,0.0118,0.0195,0.0195,0.0194,0.0194,0,0.0363,0.0383,0.0396,0.0407,0.0412,0.0425,0.0411,0.0411,0.0399,0.0382,0.037,0.0324,0.0299,0.0284,0.026,0.0235,0.0215,0.0195,0.0162,0.0179,0.0126,0.0118,0.02,0.0199,0.0198,0.0197,0,0,0.0388,0.0416,0.0422,0.0443,0.0445,0.0457,0.0467,0.0468,0.0481,0.0448,0.0454,0.0407,0.0377,0.0355,0.0315,0.0265,0.022,0.0231,0.0227,0.0186,0.0113,0.0098,0.0087,0.02,0.0199,0.0198,0.0083,0,0.0419,0.0466,0.0469,0.0519,0.0543,0.0531,0.055,0.0546,0.0533,0.0532,0.0469,0.0463,0.0406,0.04,0.034,0.0261,0.0201,0.0253,0.0101,0.0096,0.0082,0.0077,0.0195,0.0077,0.0075,0.0073,0.0072,0,0.0451,0.0481,0.0538,0.0585,0.0596,0.0623,0.0653,0.0667,0.0647,0.0636,0.06,0.0554,0.0488,0.0438,0.0286,0.0327,0.0224,0.0147,0.0141,0.0095,0.0065,0.0053,0.0056,0.0057,0.0058,0.0059,0.006,0,0.0478,0.0531,0.0585,0.0601,0.0645,0.0674,0.0699,0.0701,0.0731,0.0707,0.072,0.0623,0.0594,0.0451,0.0291,0.0291,0.0117,0.0094,-0.0025,-0.0027,-0.001,-0.0008,-0.003,-0.003,-0.0029,-0.0029,-0.0029,0,0.051,0.0554,0.061,0.0641,0.0721,0.0729,0.0804,0.0809,0.0827,0.0872,0.0785,0.0783,0.0597,0.0478,0.0314,0.0124,0.0128,-0.0025,-0.006,0.0023,0.003,-0.0016,-0.0013,-0.0033,-0.0032,-0.0032,-0.0031,0,0.0534,0.0566,0.0638,0.0705,0.0741,0.0801,0.0896,0.0941,0.0949,0.1002,0.1003,0.0907,0.0753,0.0548,0.0316,0.017,-0.0022,-0.0098,0.0011,-0.0015,-0.0141,-0.0133,-0.0239,-0.0241,-0.0242,-0.0243,-0.0244,0,0.0549,0.0588,0.0696,0.0756,0.0798,0.0893,0.0962,0.1005,0.1062,0.1078,0.1106,0.0981,0.0887,0.0558,0.0323,-0.0001,-0.0054,-0.0163,-0.0165,-0.0141,-0.0164,-0.0154,-0.0144,-0.0246,-0.0246,-0.0247,-0.0247,0,0.0579,0.0622,0.0689,0.0814,0.0907,0.1015,0.1116,0.1168,0.1218,0.1223,0.1196,0.1022,0.0843,0.0571,0.0317,0.0081,-0.0095,-0.0177,-0.0177,-0.018,-0.015,-0.017,-0.0159,-0.0252,-0.0251,-0.0251,-0.025,0,0.0611,0.0661,0.0755,0.0869,0.0991,0.1106,0.1156,0.1224,0.128,0.1292,0.1276,0.1077,0.0963,0.0613,0.038,0.0146,0.0077,-0.0011,-0.002,-0.0018,0.0072,0.0144,0.0101,0,0,0,0,0,0.0637,0.0698,0.08,0.0926,0.1046,0.1122,0.1248,0.1286,0.1336,0.133,0.131,0.1142,0.0801,0.0655,0.042,0.033,0.002,0.0042,-0.0089,-0.0277,-0.0271,-0.0205,0,0,0,0,0,0,0.0653,0.0749,0.0799,0.0958,0.1047,0.1185,0.1271,0.1303,0.1306,0.1314,0.1146,0.1061,0.0737,0.0936,0.0408,0.0336,0.0215,-0.0114,-0.012,-0.0279,-0.0275,-0.0271,-0.0201,0,0,0,0,0]}]]